Weather History for Alturas, CA

Change the Weather History Date:

Saturday, November 2, 2013

  Actual Average Record
Temperature  
Mean Temperature 38 °F 41 °F  
Max Temperature 56 °F 56 °F 81 °F (1966)
Min Temperature 20 °F 25 °F -2 °F (2002)
Degree Days  
Heating Degree Days 27 24  
Month to date heating degree days 50 48  
Since 1 July heating degree days 1005 991  
Cooling Degree Days 0 0  
Month to date cooling degree days 0 0  
Year to date cooling degree days 280 156  
Moisture  
Dew Point 28 °F    
Average Humidity 61    
Maximum Humidity 84    
Minimum Humidity 38    
Precipitation  
Precipitation 0.01 in 0.06 in 0.40 in (1940)
Month to date precipitation 0.01 0.13  
Year to date precipitation 5.84 10.80  
Sea Level Pressure  
Sea Level Pressure 30.03 in    
Wind  
Wind Speed 5 mph (WNW)    
Max Wind Speed 16 mph    
Max Gust Speed 22 mph    
Visibility 10 miles    
Events Rain    
T = Trace of Precipitation, MM = Missing Value Source: NWS Daily Summary

Daily Weather History Graph

Daily Weather History Graph

Search for Another Location

Airport:

Trip Planner

Search our weather history database for the weather conditions in past years. The results will help you decide how hot, cold, wet, or windy it might be!

Date:

Astronomy

Nov. 02, 2013 Rise Set
Actual Time 7:35 AM PDT 5:55 PM PDT
Civil Twilight 7:06 AM PDT 6:24 PM PDT
Nautical Twilight 6:33 AM PDT 6:57 PM PDT
Astronomical Twilight 6:01 AM PDT 7:29 PM PDT
Moon 6:38 AM PDT (11/2) 5:30 PM PDT (11/2)
Length of Visible Light 11h 17m
Length of Day
10h 19m
Waning Crescent, 1% of the Moon is Illuminated
Nov 2
Waning Crescent
Nov 3
New
Nov 9
First Quarter
Nov 17
Full
Nov 25
Last Quarter

Hourly Weather History & Observations

Time (PDT) Temp. Windchill Dew Point Humidity Pressure Visibility Wind Dir Wind Speed Gust Speed Precip Events Conditions
12:55 AM 28.9 °F - 21.9 °F 75% 30.08 in 10.0 mi Calm Calm - N/A   Clear
1:55 AM 27.0 °F - 19.9 °F 75% 30.07 in 10.0 mi Calm Calm - N/A   Clear
2:55 AM 26.1 °F - 19.9 °F 78% 30.05 in 10.0 mi Calm Calm - N/A   Clear
3:55 AM 26.1 °F - 21.0 °F 81% 30.02 in 10.0 mi Calm Calm - N/A   Clear
4:55 AM 23.0 °F - 18.0 °F 81% 30.02 in 8.0 mi Calm Calm - N/A   Clear
5:55 AM 26.1 °F - 21.9 °F 84% 30.02 in 10.0 mi Calm Calm - N/A   Clear
6:55 AM 21.0 °F - 16.0 °F 81% 30.04 in 10.0 mi Calm Calm - N/A   Clear
7:55 AM 21.0 °F - 16.0 °F 81% 30.04 in 6.0 mi Calm Calm - N/A   Haze
8:55 AM 37.0 °F - 25.0 °F 62% 30.01 in 10.0 mi Calm Calm - N/A   Mostly Cloudy
9:55 AM 43.0 °F - 27.0 °F 53% 29.99 in 10.0 mi Calm Calm - N/A   Mostly Cloudy
10:55 AM 54.0 °F - 28.9 °F 38% 29.98 in 10.0 mi West 10.4 mph - N/A   Overcast
11:55 AM 55.9 °F - 30.0 °F 37% 29.97 in 10.0 mi West 16.1 mph - N/A   Overcast
12:55 PM 48.9 °F - 36.0 °F 61% 29.99 in 10.0 mi NW 16.1 mph 21.9 mph 0.00 in   Overcast
1:05 PM 46.4 °F 40.1 °F 37.4 °F 71% 29.99 in 10.0 mi NNW 15.0 mph 21.9 mph N/A   Overcast
1:46 PM 44.6 °F 38.1 °F 39.2 °F 81% 29.99 in 10.0 mi NNW 13.8 mph 23.0 mph 0.00 in Rain Light Rain
1:55 PM 45.0 °F 38.9 °F 39.0 °F 80% 30.01 in 10.0 mi NNW 12.7 mph - 0.00 in   Overcast
2:55 PM 44.1 °F 39.0 °F 37.9 °F 79% 30.01 in 10.0 mi NW 9.2 mph - 0.00 in Rain Light Rain
3:36 PM 46.4 °F 45.2 °F 41.0 °F 81% 29.98 in 10.0 mi ESE 3.5 mph - 0.01 in   Overcast
3:55 PM 45.0 °F 43.5 °F 41.0 °F 86% 30.00 in 10.0 mi Variable 3.5 mph - 0.01 in   Overcast
4:55 PM 45.0 °F 38.5 °F 33.1 °F 63% 30.01 in 10.0 mi NW 13.8 mph - N/A   Overcast
5:55 PM 42.1 °F 36.1 °F 30.9 °F 65% 30.02 in 10.0 mi NW 10.4 mph - N/A   Partly Cloudy
6:55 PM 41.0 °F 38.0 °F 28.9 °F 62% 30.06 in 10.0 mi NW 4.6 mph - N/A   Mostly Cloudy
7:55 PM 37.9 °F 33.5 °F 26.1 °F 62% 30.08 in 10.0 mi WNW 5.8 mph - N/A   Mostly Cloudy
8:55 PM 36.0 °F 28.0 °F 24.1 °F 62% 30.06 in 10.0 mi West 11.5 mph - N/A   Partly Cloudy
9:55 PM 32.0 °F 27.5 °F 24.1 °F 73% 30.07 in 10.0 mi West 4.6 mph - N/A   Clear
10:55 PM 30.0 °F 24.1 °F 25.0 °F 82% 30.08 in 10.0 mi SW 5.8 mph - N/A   Scattered Clouds
11:55 PM 27.0 °F - 23.0 °F 85% 30.09 in 10.0 mi Calm Calm - N/A   Clear